This is the latest recevied weather packets stored in our database for station/object DL6DJ-15. If no packets are shown the sender has not sent any weather packets the latest 10 day(s).
| Time | Temp. | Humidity | Pressure | Rain* | Wind** | Luminosity | Snow |
|---|---|---|---|---|---|---|---|
| 1788577432 | 16.67° C | 72% | 1020.6 hPa | - | - | - | - |
| 1788577132 | 16.67° C | 72% | 1020.6 hPa | - | - | - | - |
| 1788576832 | 16.67° C | 71% | 1020.6 hPa | - | - | - | - |
| 1788576531 | 16.67° C | 69% | 1020.5 hPa | - | - | - | - |
| 1788576231 | 17.22° C | 67% | 1020.6 hPa | - | - | - | - |
| 1788575930 | 17.22° C | 62% | 1020.6 hPa | - | - | - | - |
| 1788575630 | 17.78° C | 60% | 1020.7 hPa | - | - | - | - |
| 1788575329 | 17.78° C | 61% | 1020.6 hPa | - | - | - | - |
| 1788575029 | 17.78° C | 58% | 1020.4 hPa | - | - | - | - |
| 1788574729 | 18.33° C | 59% | 1020.3 hPa | - | - | - | - |
| 1788574428 | 18.33° C | 59% | 1020 hPa | - | - | - | - |
| 1788574128 | 18.33° C | 59% | 1020.2 hPa | - | - | - | - |
| 1788573828 | 18.89° C | 57% | 1020.2 hPa | - | - | - | - |
| 1788573528 | 18.89° C | 56% | 1020.1 hPa | - | - | - | - |
| 1788573227 | 18.89° C | 54% | 1020.1 hPa | - | - | - | - |
| 1788572927 | 19.44° C | 52% | 1019.7 hPa | - | - | - | - |
| 1788572626 | 19.44° C | 51% | 1019.5 hPa | - | - | - | - |
| 1788572326 | 19.44° C | 50% | 1019.5 hPa | - | - | - | - |
| 1788572026 | 19.44° C | 50% | 1019.2 hPa | - | - | - | - |
| 1788571726 | 19.44° C | 51% | 1019.2 hPa | - | - | - | - |
| 1788571425 | 19.44° C | 51% | 1019.1 hPa | - | - | - | - |
| 1788571125 | 19.44° C | 52% | 1019.2 hPa | - | - | - | - |
| 1788570824 | 19.44° C | 53% | 1018.9 hPa | - | - | - | - |
| 1788570524 | 19.44° C | 53% | 1018.5 hPa | - | - | - | - |
| 1788570223 | 19.44° C | 54% | 1018.6 hPa | - | - | - | - |
* Rain since midnight (hover to see other rain measurements)
** Current wind speed in m/s (hover to see current wind gust speed)